Regional Weather Roundup
Issued by NWS

Home | Current Version | Previous Version | Text Only | Print | Product List | Glossary Off
Versions: 1 2 3 4 5 6 7 8 9 10 11 12 13 14 15 16 17 18 19 20 21 22 23 24 25 26 27 28 29 30 31 32 33 34 35 36 37 38 39 40 41 42 43 44 45 46 47 48 49 50

000
ASUS43 KMPX 192301
RWRMN
WEATHER ROUNDUP FOR MINNESOTA
NATIONAL WEATHER SERVICE TWIN CITIES/CHANHASSEN MN
600 PM CDT SUN APR 19 2015


NOTE: "FAIR" INDICATES FEW OR NO CLOUDS BELOW 12,000 FEET WITH NO
SIGNIFICANT WEATHER AND/OR OBSTRUCTIONS TO VISIBILITY. N/A MEANS
CURRENT SKY AND/OR WEATHER CONDITIONS ARE NOT AVAILABLE.

MNZ060>063-068>070-200000-
   Twin Cities Metro

CITY           SKY/WX    TMP DP  RH WIND       PRES   REMARKS
TWIN CITIES    CLOUDY    52  45  77 NW20      29.59S
ST PAUL        CLOUDY    53  46  77 NW15      29.59S
CRYSTAL        LGT RAIN  52  46  80 NW15G22   29.60R
LAKEVILLE      CLOUDY    50  45  81 NW15      29.59S
EDEN PRAIRIE   LGT RAIN  51  44  77 NW16G25   29.60R
SOUTH ST PAUL  CLOUDY    54  46  74 NW16G23   29.58S
LAKE ELMO      CLOUDY    54  46  76 NW15      29.58F
$$
MNZ001>005-007-008-013>017-022>024-027-028-200000-
   Northwest Minnesota

CITY           SKY/WX    TMP DP  RH WIND       PRES   REMARKS
BEMIDJI        CLOUDY    41  39  93 W16G24    29.63R
HALLOCK        CLOUDY    41  36  81 NW24G31   29.71S
ROSEAU         DRIZZLE   41  36  81 NW17      29.63F
WARROAD        DRIZZLE   39  36  87 NW17      29.63S
THIEF RVR FALL CLOUDY    41  37  87 NW24G31   29.68S
CROOKSTON      CLOUDY    39  39 100 N20G30    29.72R
FOSSTON        CLOUDY    37  36  93 NW20G28   29.68S
DETROIT LAKES  CLOUDY    41  37  87 NW23G30   29.69R
MOORHEAD       CLOUDY    45  39  81 N22       29.72F
PARK RAPIDS    CLOUDY    46  38  73 NW20      29.63R
MAHNOMEN       CLOUDY    40  37  90 NW25      29.68S
$$
MNZ006-009>011-018-025>026-200000-
   North Central Minnesota

CITY           SKY/WX    TMP DP  RH WIND       PRES   REMARKS
BAUDETTE       LGT RAIN  39  36  89 NW22G29   29.59R
FLAG ISLAND    DRIZZLE   37  36  93 NW20      29.59S
INTL FALLS     CLOUDY    44  40  85 W3        29.55F
WASKISH        DRIZZLE   43  39  87 W16G25    29.58R
BIG FORK       CLOUDY    46  43  87 CALM      29.57R
LONGVILLE      CLOUDY    45  43  93 W7        29.60R
GRAND RAPIDS   CLOUDY    45  41  87 NW3       29.58R
ORR            CLOUDY    45  39  81 CALM      29.54S
COOK           CLOUDY    45  43  93 W5        29.56F
WALKER         CLOUDY    44  39  85 NW17G24   29.61R
$$
MNZ012-019>021-037-200000-
   Northeast Minnesota

CITY           SKY/WX    TMP DP  RH WIND       PRES   REMARKS
DULUTH         DRZL/FOG  39  38  96 SE5       29.57F VSB 3/4
ELY            CLOUDY    41  39  93 SE3       29.56F FOG
HIBBING        CLOUDY    45  42  89 W6        29.57S
EVELETH        CLOUDY    43  43 100 CALM      29.58S FOG
DULUTH HARBOR  CLOUDY    37  36  93 NE12      29.61S FOG
TWO HARBORS    CLOUDY    41  36  81 NE3       29.57S HAZE
SILVER BAY     CLOUDY    39  37  93 N5        29.57F FOG
GRAND MARAIS     N/A     40  36  86 NE7       29.59F
G MARAIS ARPRT CLOUDY    37  34  87 NE5       29.58S
$$
MNZ029>031-032-039>041-046>048-054>057-064-200000-
   West Central Minnesota

CITY           SKY/WX    TMP DP  RH WIND       PRES   REMARKS
FERGUS FALLS   CLOUDY    45  37  76 NW26G35   29.72R
WHEATON        PTSUNNY   46  37  71 NW23G33   29.74R
MORRIS         DRIZZLE   46  43  87 NW18G35   29.69S
ALEXANDRIA     CLOUDY    46  39  76 NW21      29.68S
ELBOW LAKE     CLOUDY    45  40  85 NW26G33   29.69S
WADENA         LGT RAIN  43  39  87 NW18G25   29.65R
GLENWOOD       PTSUNNY   46  39  76 NW18G28   29.67S
APPLETON       PTSUNNY   52  41  66 N20G26    29.69S
BENSON         PTSUNNY   50  37  62 N15G30    29.68F
ORTONVILLE     PTSUNNY   52  37  58 N23         N/A
MADISON        MOSUNNY   54  36  50 N25G32    29.70R
WILLMAR        FAIR      50  41  71 N25G35    29.68R
$$
MNZ033>034-036-042>043-049>051-058-059-200000-
   Central Minnesota

CITY           SKY/WX    TMP DP  RH WIND       PRES   REMARKS
ST CLOUD       CLOUDY    49  41  74 NW18G28   29.62S
SAUK CENTRE    CLOUDY    46  39  75 NW22G29   29.65S
PAYNESVILLE    CLOUDY    45  39  81 W15G25    29.66S
AITKIN         CLOUDY    50  45  81 W5        29.58R
PINE RIVER     CLOUDY    46  41  81 W7G16     29.65R
BRAINERD       CLOUDY    47  41  80 W16G25    29.61R
STAPLES        CLOUDY    45  39  81 NW15G22   29.64S
LONG PRAIRIE   CLOUDY    45  37  76 W15G22    29.65S
LITTLE FALLS   CLOUDY    46  37  71 NW15G23   29.63R
LITCHFIELD     CLOUDY    50  43  76 NW20G26   29.65S
BUFFALO        CLOUDY    50  41  70 W14G21    29.63S
MAPLE LAKE     CLOUDY    50  43  75 W15G21    29.64S
$$
MNZ037-044-045-052-053-200000-
   East Central Minnesota

CITY           SKY/WX    TMP DP  RH WIND       PRES   REMARKS
PRINCETON      CLOUDY    52  43  71 W14G22    29.61S
MORA           CLOUDY    50  45  81 NW8       29.60S
CAMBRIDGE      LGT RAIN  52  43  71 W13       29.58S
RUSH CITY      CLOUDY    52  45  76 NW9       29.58R
MOOSE LAKE     CLOUDY    43  43 100 CALM      29.56F
HINCKLEY       MOCLDY    52  45  76 NW9       29.58R
CLOQUET        FOG       37  37 100 E3        29.58F VSB 1
MCGREGOR       CLOUDY    48  45  87 W5        29.58S
$$
MNZ071>073-080-081-089-090-097-098-200000-
   Southwest Minnesota

CITY           SKY/WX    TMP DP  RH WIND       PRES   REMARKS
MONTEVIDEO     PTSUNNY   52  43  71 N15       29.70R
GRANITE FALLS  MOSUNNY   53  38  58 NW21G28   29.70R
CANBY          CLOUDY    52  35  53 NW17G26   29.72R
MARSHALL       PTSUNNY   52  37  58 N18G24    29.69R
REDWOOD FALLS  MOSUNNY   53  37  54 NW22G35   29.67R
OLIVIA         MOSUNNY   50  36  57 NW23G32   29.66R
PIPESTONE      PTSUNNY   54  27  35 NW26G36   29.70S
WINDOM         CLOUDY    52  39  62 NW17G25   29.68R
WORTHINGTON    CLOUDY    52  36  54 NW18      29.69F
JACKSON        CLOUDY    50  37  62 NW16G24   29.68S
TRACY          PTSUNNY   53  40  61 N18G24    29.69R
SLAYTON        PTSUNNY   51  37  58 NW14G25   29.70R
$$
MNZ065>067-074>077-082>085-091>093-200000-
   South Central Minnesota

CITY           SKY/WX    TMP DP  RH WIND       PRES   REMARKS
MANKATO        CLOUDY    48  39  71 NW22      29.64S
NEW ULM        CLOUDY    50  39  66 N20G25    29.65S
ST JAMES       CLOUDY    50  43  76 NW14      29.68S
FAIRMONT       CLOUDY    48  34  57 NW16      29.65F
GLENCOE        CLOUDY    50  43  77 NW21G26   29.63S
FARIBAULT      LGT RAIN  52  45  76 W17G23    29.62R
OWATONNA       LGT RAIN  50  45  81 NW21G28   29.61R
ALBERT LEA     LGT RAIN  48  46  93 NW18G25   29.60R
$$
MNZ078>079-086>088-094>096-200000-
   Southeast Minnesota

CITY           SKY/WX    TMP DP  RH WIND       PRES   REMARKS
ROCHESTER      RAIN      51  49  92 N15       29.58R FOG
RED WING       RAIN      54  52  94 CALM      29.56R
STANTON        LGT RAIN  52  47  81 W17       29.59R
DODGE CENTER   LGT RAIN  50  48  93 NW20G28   29.57F
WINONA         CLOUDY    55  46  71 SE6       29.53S
AUSTIN         DRIZZLE   48  46  93 NW20G31   29.57S
PRESTON        DRIZZLE   51  49  92 NW18      29.54S
$$
ABBREVIATIONS USED IN REMARKS
   TC - TEMPERATURES IN CELSIUS
  WCI - WIND CHILL INDEX
   HX - HEAT INDEX
  VSB - VISIBILITY
$$


USA.gov is the U.S. government's official web portal to all federal, state and local government web resources and services.